Weather observations for the past three days for
Kirksville, Kirksville Regional Airport
Imperial (Metric)
Date Time (cdt) Wind (mph) Vis. (mi.) Weather Sky Cond. Temperature (ºF) Relative Humidity Wind Chill (°F) Heat Index (°F) Pressure Precipitation (in)
Air Dwpt 6 hour altimeter (in) sea level (mb) 1 hr 3 hr 6 hr
Max. Min.
05 16:55 N 5 10.00 Fair CLR 95 69.1 43% 101 29.92 1012.6
05 15:55 NE 6 10.00 Fair CLR 96.1 66 37% 100 29.94 1013.1
05 12:55 N 5 10.00 A Few Clouds FEW065 97 68 97 70 39% 102 29.98 1014.2
05 11:55 N 7 10.00 Fair CLR 96.1 66.9 39% 100 30 1015.0
05 10:55 Vrbl 3 10.00 Fair CLR 93 69.1 46% 98 30 1015.0
05 09:55 W 5 10.00 Fair CLR 91 71.1 52% 98 29.98 1014.5
05 08:55 W 5 10.00 Fair CLR 84.9 73 68% 92 29.98 1014.6
05 07:55 Calm 10.00 Fair CLR 77 72 85% 78 29.98 1014.4
05 06:55 Calm 7.00 Fair CLR 71.1 69.1 77 70 94% 29.96 1013.7
05 05:55 Calm 10.00 Fair CLR 71.1 69.1 94% 29.94 1013.1
05 04:55 Calm 10.00 Fair CLR 71.1 70 96% 29.94 1013.1
05 03:55 Calm 10.00 Fair CLR 72 69.1 91% 29.94 1013.3
05 02:55 S 5 10.00 Fair CLR 73.9 70 88% 29.95 1013.4
05 01:55 Calm 10.00 Fair CLR 73.9 70 88% 29.96 1013.6
05 00:55 S 3 10.00 Fair CLR 75 72 90 75 90% 74 29.96 1013.6
04 23:55 Calm 10.00 Fair CLR 75.9 71.1 85% 76 29.96 1013.6
04 22:55 Calm 10.00 Mostly Cloudy BKN120 77 71.1 82% 79 29.95 1013.6
04 21:55 Calm 10.00 A Few Clouds FEW120 77 71.1 82% 79 29.95 1013.5
04 20:55 Calm 10.00 Fair CLR 79 72 79% 82 29.93 1013.0
04 19:55 Calm 10.00 Fair CLR 82 72 72% 87 29.92 1012.6
04 18:55 S 5 10.00 Fair CLR 90 71.1 96.1 90 54% 96 29.92 1012.3
04 17:55 SW 10 10.00 Fair CLR 93.9 69.1 44% 99 29.92 1012.3
04 16:55 SW 13 10.00 Fair CLR 95 68 41% 100 29.92 1012.4
04 15:55 S 9 10.00 Fair CLR 96.1 69.1 41% 102 29.93 1012.7
04 14:55 S 13 G 21 10.00 Fair CLR 96.1 69.1 41% 102 29.95 1013.2
04 13:55 S 9 10.00 Fair CLR 95 71.1 46% 102 29.97 1014.0
04 12:55 SW 13 G 21 10.00 Fair CLR 91.9 71.1 93.9 73 51% 99 29.99 1014.7
04 11:55 S 14 10.00 Fair CLR 91.9 71.1 51% 99 30 1015.2
04 10:55 SW 13 G 23 10.00 Fair CLR 90 70 52% 95 30 1015.0
04 09:55 Vrbl 6 G 16 10.00 Fair CLR 87.1 71.1 59% 93 29.99 1014.7
04 08:55 SW 7 10.00 Fair CLR 82 69.1 65% 85 29.98 1014.6
04 07:55 SW 7 10.00 Fair CLR 77 69.1 77% 79 29.98 1014.7
04 06:55 S 5 10.00 Fair CLR 73 68 77 71.1 84% 29.97 1014.0
04 05:55 SW 6 10.00 Fair CLR 73.9 68 82% 29.94 1013.2
04 04:55 SW 6 10.00 Fair CLR 75.9 68 77% 77 29.93 1012.6
04 03:55 S 7 10.00 Fair CLR 75 69.1 82% 75 29.92 1012.4
04 02:55 S 7 10.00 Fair CLR 75.9 70 82% 77 29.92 1012.2
04 01:55 S 7 10.00 Fair CLR 75 70 84% 75 29.92 1012.4
04 00:55 S 7 10.00 Fair CLR 75.9 70 90 75 82% 77 29.92 1012.3
03 23:55 S 5 10.00 Fair CLR 77 69.1 77% 79 29.92 1012.3
03 22:55 S 5 10.00 Fair CLR 77 69.1 77% 79 29.92 1012.5
03 21:55 SE 3 10.00 Fair CLR 77 69.1 77% 79 29.92 1012.6
03 20:55 S 5 10.00 Fair CLR 81 69.1 67% 84 29.9 1011.8
03 19:55 S 5 10.00 Fair CLR 84 70 63% 88 29.9 1011.7
03 18:55 S 7 10.00 Fair CLR 91 70 97 91 50% 97 29.9 1011.6
03 17:55 S 9 10.00 Fair CLR 93.9 70 46% 100 29.9 1011.8
03 16:55 S 10 10.00 Fair CLR 95 68 41% 100 29.91 1011.8
03 15:55 S 9 G 17 10.00 A Few Clouds FEW060 95 70 44% 101 29.92 1012.2
03 14:55 SW 9 10.00 Fair CLR 96.1 70 43% 103 29.92 1012.4
03 13:55 SW 10 10.00 Fair CLR 95 69.1 43% 101 29.94 1012.9
03 12:55 SW 12 G 17 10.00 Fair CLR 93 71.1 93.9 75 49% 100 29.95 1013.5
03 11:55 W 10 10.00 Fair CLR 91 70 50% 97 29.97 1014.1
03 10:55 SW 10 G 21 10.00 Fair CLR 89.1 70 53% 94 29.98 1014.3
03 09:55 SW 10 G 18 10.00 Fair CLR 84.9 70 61% 89 29.98 1014.3
03 08:55 SW 12 G 18 10.00 Fair CLR 82 69.1 65% 85 29.98 1014.3
03 07:55 S 8 10.00 Fair CLR 77 69.1 77% 79 29.97 1014.2
03 06:55 S 7 10.00 Fair CLR 75 68 80.1 73.9 79% 76 29.95 1013.6
03 05:55 S 6 10.00 Fair CLR 75 69.1 82% 75 29.94 1013.1
03 04:55 S 7 10.00 Fair CLR 75.9 69.1 79% 77 29.94 1012.9
03 03:55 S 8 10.00 Fair CLR 77 70 79% 79 29.94 1012.9
03 02:55 S 8 10.00 Fair CLR 78.1 70 76% 80 29.94 1012.9
03 01:55 S 7 10.00 Fair CLR 78.1 70 76% 80 29.94 1013.1
03 00:55 S 7 10.00 Fair CLR 80.1 69.1 90 78.1 69% 83 29.95 1013.2
02 23:55 S 8 10.00 Fair CLR 79 69.1 72% 82 29.94 1013.2
02 22:55 S 8 10.00 Fair CLR 79 70 74% 82 29.95 1013.3
02 21:55 S 8 10.00 Fair CLR 78.1 70 76% 80 29.95 1013.4
02 20:55 S 6 10.00 Fair CLR 81 70 69% 84 29.94 1013.0
02 19:55 S 6 10.00 Fair CLR 84 70 63% 88 29.93 1012.8
02 18:55 S 5 10.00 Fair CLR 91 70 98.1 91 50% 97 29.93 1012.6
02 17:55 SW 10 10.00 Fair CLR 95 66 39% 98 29.93 1012.6
Date Time (cdt) Wind (mph) Vis. (mi.) Weather Sky Cond. Air Dwpt Max. Min. Relative Humidity Wind Chill (°F) Heat Index (°F) altimeter (in) sea level (mb) 1 hr 3 hr 6 hr
6 hour
Temperature (ºF) Pressure Precipitation (in)